TimeCST,TemperatureF,Dew PointF,Humidity,Sea Level PressureIn,VisibilityMPH,Wind Direction,Wind SpeedMPH,Gust SpeedMPH,PrecipitationIn,Events,Conditions,WindDirDegrees,DateUTC
12:53 AM,19.9,14.0,78,30.65,10.0,Calm,Calm,-,N/A,,Partly Cloudy,0,2014-01-07 06:53:00
1:53 AM,19.0,15.1,85,30.64,10.0,Calm,Calm,-,N/A,,Partly Cloudy,0,2014-01-07 07:53:00
2:53 AM,18.0,14.0,84,30.64,10.0,Calm,Calm,-,N/A,,Scattered Clouds,0,2014-01-07 08:53:00
3:53 AM,18.0,12.9,81,30.64,10.0,South,3.5,-,N/A,,Partly Cloudy,190,2014-01-07 09:53:00
4:53 AM,18.0,14.0,84,30.64,10.0,Calm,Calm,-,N/A,,Partly Cloudy,0,2014-01-07 10:53:00
5:53 AM,15.1,12.0,88,30.65,10.0,West,3.5,-,N/A,,Partly Cloudy,260,2014-01-07 11:53:00
6:53 AM,16.0,12.9,88,30.65,10.0,Calm,Calm,-,N/A,,Partly Cloudy,0,2014-01-07 12:53:00
7:53 AM,15.1,12.0,88,30.65,10.0,Calm,Calm,-,N/A,,Scattered Clouds,0,2014-01-07 13:53:00
8:53 AM,25.0,17.1,72,30.64,10.0,Calm,Calm,-,N/A,,Scattered Clouds,0,2014-01-07 14:53:00
9:53 AM,32.0,12.0,44,30.64,10.0,South,6.9,-,N/A,,Scattered Clouds,180,2014-01-07 15:53:00
10:53 AM,37.0,3.9,25,30.62,10.0,South,11.5,-,N/A,,Partly Cloudy,180,2014-01-07 16:53:00
11:53 AM,39.9,1.0,20,30.58,10.0,SSE,10.4,-,N/A,,Partly Cloudy,160,2014-01-07 17:53:00
12:53 PM,43.0,3.9,20,30.52,10.0,SSE,13.8,21.9,N/A,,Partly Cloudy,160,2014-01-07 18:53:00
1:53 PM,45.0,5.0,19,30.48,10.0,South,12.7,17.3,N/A,,Scattered Clouds,190,2014-01-07 19:53:00
2:53 PM,45.0,7.0,21,30.46,10.0,South,12.7,18.4,N/A,,Overcast,170,2014-01-07 20:53:00
3:53 PM,45.0,7.0,21,30.45,10.0,South,13.8,-,N/A,,Overcast,190,2014-01-07 21:53:00
4:53 PM,44.1,8.1,23,30.44,10.0,South,13.8,-,N/A,,Overcast,170,2014-01-07 22:53:00
5:53 PM,43.0,7.0,23,30.43,10.0,South,10.4,-,N/A,,Overcast,170,2014-01-07 23:53:00
6:53 PM,43.0,9.0,25,30.42,10.0,South,9.2,-,N/A,,Overcast,170,2014-01-08 00:53:00
7:53 PM,43.0,10.9,27,30.42,10.0,South,8.1,-,N/A,,Overcast,170,2014-01-08 01:53:00
8:53 PM,43.0,17.1,35,30.41,10.0,South,9.2,-,N/A,,Overcast,180,2014-01-08 02:53:00
9:53 PM,43.0,21.9,43,30.40,10.0,South,9.2,-,N/A,,Overcast,180,2014-01-08 03:53:00
10:53 PM,43.0,24.1,47,30.38,10.0,South,8.1,-,N/A,,Overcast,170,2014-01-08 04:53:00
11:53 PM,43.0,26.1,51,30.36,10.0,South,10.4,-,N/A,,Overcast,170,2014-01-08 05:53:00